Showing default

COSMOS 1827, 17582

Orbit data source: Space-Track

COSMOS 1827, 17582 is a payload satellite owned by UNKS (CIS) in LEO that was launched on Fri, 13 Mar 1987 UTC via a TSIKLON-3 launch vehicle from the Plesetsk Missile And Space Complex (PKMTR). Payload-class satellites include a variety of spacecraft equipped with specific instruments for various scientific and technological missions. These include communications satellites like Starlink; space stations such as the ISS; scientific satellites like the Hubble; Earth observation satellites from companies like Planet Labs, Umbra, and HawkEye 360; GPS; miniature CubeSats for education and research; and military/defense satellites.

Loading next visibility...
Identifier
17582, 1987-026A
Orbit
LEO
Country
Flag of CISCIS
Related business
Manufacturer
NPO PM
Mission
Defense Communications
Bus & Motor
STRELA-3, Unknown motor
Mass
225 kg wet, 225 kg dry
Launch date (UTC)
1987-03-13 (39 years ago)
Launch vehicle
TSIKLON-3
Launch site
Plesetsk Missile And Space Complex (PKMTR)
Object type
Payload
Rocket body
Debris
Shape & HBR
Cyl, 0.8 m
Radar Cross Section
1.257 m², Medium (>0.1 m² and < 1m²)

Expand to show TLE details & history
Last TLE update: 1 day ago

TLE from 1 day ago
0 COSMOS 1827
1 17582U 87026A   25260.78764285  .00000014  00000-0  15503-4 0  9991
2 17582  82.5749   6.9735 0012811  60.1891 300.0474 12.65006285778205
Epoch: 2025-09-17T18:54Z
TLE epoch observation values (Epoch: 2025-09-17T18:54:12.342Z)
Latitude
0.00002°
Longitude
86.4635°
Altitude
1,400.1 km
Speed
7.162 km/s
True Right ascension
00h 27m 53s
True Declination
0° 00' 00"
Sunlit
Object was in full shadow at epoch
Visualization orbit readout
Latitude
Unknown
Longitude
Unknown
Altitude
Unknown
Speed
Unknown
Apparent Right ascension
Unknown
Apparent Declination
Unknown
Sunlit
N/A
Visualization observer readout
Local Sidereal Time
17:27:42
Azimuth
Unknown
Elevation
Unknown
Doppler factor
Unknown
Orbital elements
Apogee altitude
1,409.63 km
Perigee altitude
1,389.702 km
Semi-major axis
7,777.803 km
Eccentricity
0.00128
Inclination
82.5749°
RAAN
6.9735°
Arg. of periapsis
60.1891°
True anomaly
299.92022°
Mean anomaly
300.0474°
Eccentric anomaly
299.98382°
Mean motion
3.16416 °/min
Orbital period
113.77 mins
BSTAR
0.000015503
Loading maneuver chart data...
Computing Atmospheric mass density...
Loading historical data...
Loading historical data...
Loading historical data...
Loading historical data...
Loading historical data...
Loading historical data...
Loading historical data...

Documentation

Showing up to 5 results
|